User: anonymous   Login
Location: Sunny Point
(33.0946°N, 85.0574°W)
Time: 13:40:26
(UTC+00:00)
Language:

AO-73 - Orbit

View from above orbital plane
View from above orbital plane
View from above satellite
View from above satellite

Ground track
Ground track

The orbit data is extracted from the following two-line orbital elements,

1 39444U 13066AE  24193.41902033  .00007615  00000-0  72990-3 0  9990
2 39444  97.7200 152.0344 0049397  61.8996 298.7203 14.92486669573721
Epoch (UTC): 11 July 2024 10:03:23
Eccentricity: 0.0049397
inclination: 97.7200°
perigee height: 556 km
apogee height: 624 km
right ascension of ascending node: 152.0344°
argument of perigee: 61.8996°
revolutions per day: 14.92486669
mean anomaly at epoch: 298.7203°
orbit number at epoch: 57372

The dashed part of the orbit path shows where the satellite is in the earth's shadow,  

DLR